sat.trackr.live / text

‹ back to catalog

KUIPER-00500

NORAD 68882 · 2026-095U

PAYLOAD ACTIVE UNKNOWN

§ Identity

Operator
Country
US
Launch date
2026-04-28
Launch site
AFETR
Launch vehicle
Mass (kg)
RCS (m²)

External: N2YO · Heavens-Above · Gunter

§ Orbital elements

Epoch: 2026-09-20T04:19:02.197920Z

Period
97.30 min
Inclination
51.9007°
Eccentricity
0.0000788
Mean motion
14.79930847 rev/d
Perigee alt
629.0 km
Apogee alt
630.1 km
Semi-major
7,007.7 km
B*
4.0524e-5
RAAN
190.6033°
Arg perigee
76.9308°
Mean anomaly
283.1742°
Rev number
2,168

§ Raw data

KUIPER-005001 68882U 26095U   26263.17988655  .00000088  00000+0  40524-4 0  99962 68882  51.9007 190.6033 0000788  76.9308 283.1742 14.79930847 21680

JSON: /api/v1/satellites/68882 · /tle

For live sub-satellite position, see the globe view (requires WebGL).

§ Visibility from observer

Set your observer location to see the next 7 days of passes ≥ 10°. The values pass through the URL so the page stays shareable.

No JS? Fill the form by hand. The geolocation button needs JavaScript.